Weather History for LGIR - January, 2014

Change the Weather History Date:

Thursday, January 2, 2014

  Actual Average Record
Temperature  
Mean Temperature 57 °F -  
Max Temperature 63 °F 59 °F 52 °F (2015)
Min Temperature 51 °F 48 °F 48 °F (2015)
Degree Days  
Heating Degree Days 8    
Growing Degree Days 7 (Base 50)    
Moisture  
Dew Point 51 °F    
Average Humidity 83    
Maximum Humidity 94    
Minimum Humidity 61    
Precipitation  
Precipitation 0.12 in 0.12 in - ()
Sea Level Pressure  
Sea Level Pressure 30.05 in    
Wind  
Wind Speed 8 mph ()    
Max Wind Speed 14 mph    
Max Gust Speed -    
Visibility 6.4 miles    
Events Rain    
Averages and records for this station are not official NWS values.
T = Trace of Precipitation, MM = Missing Value Source: Averaged Metar Reports

Daily Weather History Graph

Daily Weather History Graph

Search for Another Location

Airport or City:

Trip Planner

Search our weather history database for the weather conditions in past years. The results will help you decide how hot, cold, wet, or windy it might be!

Date:

Astronomy

Jan. 02, 2014 Rise Set
Actual Time 7:28 AM EET 5:18 PM EET
Civil Twilight 7:00 AM EET 5:46 PM EET
Nautical Twilight 6:28 AM EET 6:18 PM EET
Astronomical Twilight 5:57 AM EET 6:49 PM EET
Moon 7:57 AM EET 6:48 PM EET
Length of Visible Light 10h 46m
Length of Day
9h 50m
New Moon, 1% of the Moon is Illuminated
Jan 2
New Moon
Jan 8
First Quarter
Jan 16
Full
Jan 24
Last Quarter
Jan 30
New

Hourly Weather History & Observations

Time (EET) Temp. Dew Point Humidity Pressure Visibility Wind Dir Wind Speed Gust Speed Precip Events Conditions
12:20 AM 57.2 °F 46.4 °F 67% 30.04 in 6.2 mi South 13.8 mph - N/A   Scattered Clouds
12:50 AM 57.2 °F 46.4 °F 67% 30.04 in 6.2 mi South 9.2 mph - N/A   Scattered Clouds
1:20 AM 57.2 °F 48.2 °F 72% 30.04 in 6.2 mi South 11.5 mph - N/A   Mostly Cloudy
1:50 AM 55.4 °F 51.8 °F 88% 30.04 in 6.2 mi South 12.7 mph - N/A Rain Light Rain
2:00 AM 55 °F 52 °F 86% 30.04 in 6 mi South 12.7 mph - - Rain Light Rain
2:20 AM 55.4 °F 51.8 °F 88% 30.04 in 5.0 mi SSW 10.4 mph - N/A Rain Rain
2:50 AM 55.4 °F 51.8 °F 88% 30.01 in 6.2 mi South 13.8 mph - N/A   Mostly Cloudy
3:20 AM 55.4 °F 51.8 °F 88% 30.01 in 6.2 mi Variable 2.3 mph - N/A   Mostly Cloudy
3:50 AM 55.4 °F 51.8 °F 88% 30.01 in 6.2 mi Variable 5.8 mph - N/A   Mostly Cloudy
4:50 AM 51.8 °F 48.2 °F 88% 30.01 in 6.2 mi South 8.1 mph - N/A   Scattered Clouds
5:00 AM 53 °F 49 °F 81% 30.02 in 9 mi South 8.1 mph - -   Partly Cloudy
5:20 AM 51.8 °F 48.2 °F 88% 30.01 in 6.2 mi South 8.1 mph - N/A   Scattered Clouds
5:50 AM 51.8 °F 48.2 °F 88% 30.01 in 6.2 mi South 11.5 mph - N/A   Scattered Clouds
6:20 AM 51.8 °F 48.2 °F 88% 30.01 in 6.2 mi SSE 10.4 mph - N/A   Mostly Cloudy
6:50 AM 53.6 °F 48.2 °F 82% 30.01 in 6.2 mi South 6.9 mph - N/A   Mostly Cloudy
7:20 AM 53.6 °F 48.2 °F 82% 30.01 in 6.2 mi Variable 3.5 mph - N/A   Mostly Cloudy
7:50 AM 53.6 °F 48.2 °F 82% 30.04 in 6.2 mi South 5.8 mph - N/A   Scattered Clouds
8:00 AM 53 °F 49 °F 80% 30.04 in 9 mi South 5.8 mph - -   Partly Cloudy
8:20 AM 53.6 °F 48.2 °F 82% 30.04 in 6.2 mi South 5.8 mph - N/A   Scattered Clouds
8:50 AM 55.4 °F 50.0 °F 82% 30.04 in 6.2 mi SSW 4.6 mph - N/A   Scattered Clouds
9:20 AM 59.0 °F 50.0 °F 72% 30.04 in 6.2 mi SW 9.2 mph - N/A   Scattered Clouds
9:50 AM 60.8 °F 50.0 °F 68% 30.04 in 6.2 mi WSW 6.9 mph - N/A   Scattered Clouds
10:20 AM 60.8 °F 50.0 °F 68% 30.04 in 6.2 mi SW 5.8 mph - N/A   Scattered Clouds
10:50 AM 60.8 °F 51.8 °F 72% 30.06 in 6.2 mi NW 3.5 mph - N/A   Mostly Cloudy
11:00 AM 61 °F 51 °F 61% 30.06 in 9 mi NW 3.5 mph - -   Partly Cloudy
11:20 AM 60.8 °F 51.8 °F 72% 30.06 in 6.2 mi NNW 12.7 mph - N/A   Mostly Cloudy
11:50 AM 59.0 °F 53.6 °F 82% 30.06 in 6.2 mi NW 12.7 mph - N/A   Mostly Cloudy
12:20 PM 59.0 °F 53.6 °F 82% 30.06 in 6.2 mi NW 10.4 mph - N/A   Mostly Cloudy
12:50 PM 57.2 °F 53.6 °F 88% 30.04 in 6.2 mi WNW 11.5 mph - N/A Rain Light Rain
1:20 PM 57.2 °F 53.6 °F 88% 30.04 in 6.2 mi WNW 8.1 mph - N/A Rain Light Rain
1:50 PM 59.0 °F 55.4 °F 88% 30.04 in 6.2 mi NW 8.1 mph - N/A   Mostly Cloudy
2:00 PM 58 °F 56 °F 90% 30.05 in 9 mi NW 8.1 mph - - Rain Light Rain
2:20 PM 59.0 °F 55.4 °F 88% 30.04 in 6.2 mi WNW 11.5 mph - N/A Rain Light Rain
2:50 PM 57.2 °F 53.6 °F 88% 30.04 in 6.2 mi NW 6.9 mph - N/A Rain Light Rain
3:20 PM 57.2 °F 53.6 °F 88% 30.04 in 6.2 mi Variable 3.5 mph - N/A   Mostly Cloudy
3:50 PM 57.2 °F 53.6 °F 88% 30.04 in 6.2 mi Variable 1.2 mph - N/A Rain Light Rain
4:20 PM 57.2 °F 53.6 °F 88% 30.04 in 6.2 mi Variable 4.6 mph - N/A Rain Light Rain
4:50 PM 57.2 °F 51.8 °F 82% 30.04 in 6.2 mi WSW 10.4 mph - N/A Rain Light Rain
5:00 PM 57 °F 53 °F 80% 30.05 in 9 mi WSW 10.4 mph - - Rain Light Rain
5:20 PM 57.2 °F 51.8 °F 82% 30.04 in 6.2 mi North 8.1 mph - N/A Rain Light Rain
5:50 PM 57.2 °F 51.8 °F 82% 30.06 in 6.2 mi WSW 8.1 mph - N/A Rain Light Rain
6:20 PM 57.2 °F 51.8 °F 82% 30.04 in 6.2 mi North 8.1 mph - N/A Rain Light Rain
6:50 PM 57.2 °F 51.8 °F 82% 30.06 in 6.2 mi North 10.4 mph - N/A   Mostly Cloudy
7:20 PM 57.2 °F 51.8 °F 82% 30.06 in 6.2 mi North 8.1 mph - N/A   Mostly Cloudy
7:50 PM 57.2 °F 51.8 °F 82% 30.09 in 6.2 mi NNW 8.1 mph - N/A   Mostly Cloudy
8:00 PM 56 °F 53 °F 84% 30.10 in 9 mi NNW 8.1 mph - -   Partly Cloudy
8:20 PM 57.2 °F 51.8 °F 82% 30.09 in 6.2 mi Variable 3.5 mph - N/A   Mostly Cloudy
8:50 PM 55.4 °F 51.8 °F 88% 30.09 in 6.2 mi Variable 2.3 mph - N/A   Mostly Cloudy
9:20 PM 55.4 °F 51.8 °F 88% 30.09 in 6.2 mi Variable 4.6 mph - N/A   Mostly Cloudy
9:50 PM 55.4 °F 50.0 °F 82% 30.09 in 6.2 mi SW 8.1 mph - N/A Rain Light Rain
10:20 PM 55.4 °F 50.0 °F 82% 30.09 in 5.0 mi SW 4.6 mph - N/A Rain Light Rain
10:50 PM 53.6 °F 51.8 °F 94% 30.12 in 5.0 mi SW 4.6 mph - N/A Rain Light Rain
11:00 PM 54 °F 52 °F 92% 30.14 in 5 mi SW 4.6 mph - - Rain Light Rain
11:20 PM 53.6 °F 51.8 °F 94% 30.12 in 6.2 mi SSW 3.5 mph - N/A Rain Light Rain
11:50 PM 53.6 °F 51.8 °F 94% 30.12 in 6.2 mi South 3.5 mph - N/A   Mostly Cloudy